Dothan, AL

11:32 AM CDT on March 25, 2017 (GMT -0500)
Dothan Regional

Weather History for KDHN - March, 2013

Change the Weather History Date:

Tuesday, March 12, 2013

  Actual Average Record
Temperature  
Mean Temperature 52 °F 58 °F  
Max Temperature 63 °F 70 °F 89 °F (1955)
Min Temperature 41 °F 46 °F 26 °F (1998)
Degree Days  
Heating Degree Days 13 7  
Month to date heating degree days 168 101  
Since 1 July heating degree days 1375 1660  
Cooling Degree Days 0 1  
Month to date cooling degree days 0 12  
Year to date cooling degree days 38 22  
Growing Degree Days 1 (Base 50)    
Moisture  
Dew Point 37 °F    
Average Humidity 67    
Maximum Humidity 93    
Minimum Humidity 34    
Precipitation  
Precipitation 0.00 in 0.18 in 0.66 in (2002)
Month to date precipitation 0.62 1.95  
Year to date precipitation 7.95 11.35  
Sea Level Pressure  
Sea Level Pressure 30.04 in    
Wind  
Wind Speed 12 mph (NNW)    
Max Wind Speed 18 mph    
Max Gust Speed 28 mph    
Visibility 10 miles    
Events      
T = Trace of Precipitation, MM = Missing Value Source: NWS Daily Summary

Daily Weather History Graph

Daily Weather History Graph

Search for Another Location

Airport or City:

Trip Planner

Search our weather history database for the weather conditions in past years. The results will help you decide how hot, cold, wet, or windy it might be!

Date:

Astronomy

Mar. 12, 2013 Rise Set
Actual Time 6:55 AM CDT 6:48 PM CDT
Civil Twilight 6:31 AM CDT 7:12 PM CDT
Nautical Twilight 6:02 AM CDT 7:40 PM CDT
Astronomical Twilight 5:34 AM CDT 8:08 PM CDT
Moon 7:07 AM CDT (3/12) 7:54 PM CDT (3/12)
Length of Visible Light 12h 41m
Length of Day
11h 52m
New Moon, 1% of the Moon is Illuminated
Mar 12
New Moon
Mar 19
First Quarter
Mar 27
Full
Apr 2
Last Quarter
Apr 10
New

Hourly Weather History & Observations

Time (CDT) Temp. Windchill Dew Point Humidity Pressure Visibility Wind Dir Wind Speed Gust Speed Precip Events Conditions
12:02 AM 48.2 °F - 46.4 °F 93% 29.93 in 10.0 mi NW 11.5 mph - N/A   Overcast
12:48 AM 48.2 °F - 42.8 °F 82% 29.93 in 10.0 mi NNW 18.4 mph 27.6 mph N/A   Overcast
12:53 AM 48.0 °F - 43.0 °F 83% 29.92 in 10.0 mi NW 17.3 mph 25.3 mph N/A   Overcast
1:53 AM 46.0 °F 39.6 °F 41.0 °F 83% 29.94 in 10.0 mi NNW 15.0 mph - N/A   Partly Cloudy
2:53 AM 45.0 °F 38.5 °F 39.9 °F 82% 29.94 in 10.0 mi NNW 13.8 mph - N/A   Clear
3:53 AM 44.1 °F 37.1 °F 39.0 °F 82% 29.95 in 10.0 mi NNW 15.0 mph - N/A   Clear
4:53 AM 43.0 °F 37.2 °F 39.0 °F 86% 29.98 in 10.0 mi NNW 10.4 mph - N/A   Clear
5:53 AM 42.1 °F 37.7 °F 39.0 °F 89% 30.00 in 10.0 mi NNW 6.9 mph - N/A   Clear
6:53 AM 41.0 °F 34.3 °F 37.9 °F 89% 30.02 in 10.0 mi NNW 11.5 mph - N/A   Clear
7:53 AM 41.0 °F 34.7 °F 35.1 °F 79% 30.04 in 10.0 mi NNW 10.4 mph - N/A   Clear
8:53 AM 43.0 °F 36.4 °F 35.1 °F 74% 30.06 in 10.0 mi NNW 12.7 mph - N/A   Clear
9:53 AM 46.9 °F - 36.0 °F 66% 30.07 in 10.0 mi NNW 13.8 mph - N/A   Clear
10:53 AM 51.1 °F - 37.0 °F 59% 30.08 in 10.0 mi NNW 13.8 mph - N/A   Clear
11:53 AM 54.0 °F - 36.0 °F 51% 30.08 in 10.0 mi NNW 11.5 mph - N/A   Clear
12:53 PM 55.9 °F - 33.1 °F 42% 30.08 in 10.0 mi NNW 13.8 mph - N/A   Clear
1:53 PM 60.1 °F - 33.1 °F 36% 30.05 in 10.0 mi NW 10.4 mph - N/A   Clear
5:53 PM 61.0 °F - 32.0 °F 34% 30.06 in 10.0 mi NNW 9.2 mph - N/A   Clear
6:53 PM 57.0 °F - 35.1 °F 44% 30.09 in 10.0 mi NW 8.1 mph - N/A   Clear
7:53 PM 53.1 °F - 35.1 °F 50% 30.11 in 10.0 mi NW 6.9 mph - N/A   Clear
8:53 PM 50.0 °F - 35.1 °F 57% 30.14 in 10.0 mi NW 6.9 mph - N/A   Clear
9:53 PM 50.0 °F - 34.0 °F 54% 30.15 in 10.0 mi NW 8.1 mph - N/A   Clear
10:53 PM 46.9 °F - 36.0 °F 66% 30.17 in 10.0 mi NW 6.9 mph - N/A   Clear
11:53 PM 46.9 °F - 35.1 °F 63% 30.17 in 10.0 mi WNW 5.8 mph - N/A   Clear